ISS - Orbit

View from above orbital plane
View from above orbital plane
View from above satellite
View from above satellite

Ground track
Ground track

The orbit data is extracted from the following two-line orbital elements,

1 25544U 98067A   13141.52606481  .00009490  00000-0  17153-3 0  8522
2 25544 051.6480 240.5324 0009594 339.8598 208.0589 15.50387154830561
Epoch (UTC): 21 May 2013 12:37:32
Eccentricity: 0.0009594
inclination: 51.6480°
perigee height: 409 km
apogee height: 422 km
right ascension of ascending node: 240.5324°
argument of perigee: 339.8598°
revolutions per day: 15.50387154
mean anomaly at epoch: 208.0589°
orbit number at epoch: 83056

The dashed part of the orbit path shows where the satellite is in the earth's shadow,  

Developed and maintained by Chris Peat, Heavens-Above GmbH. Please read the updated FAQ before sending e-mail. Imprint. DLR